[[{"header":{"parameterUnit":"m.s-1","parameterCategory":1,"la1":30.2991,"la2":30.254,"lo1":-89.0895,"lo2":-89.0444,"dx":0.0017,"dy":0.0017,"nx":28,"ny":28,"refTime":"2023-01-20T09:00:00:Z","depth":0,"parameterNumber":2,"parameterNumberName":"U-component_of_WINDS"},"data":[0,0,0,0,0,0,0,0,0,0,0,0,0,0,0,0,0,0,0,0,0,0,0,0,0,0,0,0,0,0,0,0,0,0,0,0,0,0,0,0,0,0,0,0,0,0,0,0,0,0,0,0,0,0,0,0,0,0,-4.8381,-4.8379,0,-4.8213,-4.8211,-4.8209,-4.798,-4.7976,-4.7972,-4.7969,-4.7804,-4.7803,-4.7802,0,0,0,0,0,0,0,0,0,0,0,0,0,-4.8511,-4.851,-4.8381,-4.8379,-4.8377,-4.8213,-4.8211,-4.8208,-4.7981,-4.7976,-4.7971,-4.7967,-4.7804,-4.7803,-4.7802,0,0,0,0,0,0,0,0,0,0,0,0,0,-4.841,-4.8509,-4.8381,-4.8243,-4.8229,-4.8213,-4.821,-4.8208,-4.7982,-4.7976,-4.797,-4.7965,-4.7804,-4.7803,-4.7802,-4.791,0,0,-4.7798,-4.7798,0,0,0,0,0,0,0,0,-4.8416,-4.8406,-4.8266,-4.8253,-4.8237,-4.8111,-4.8195,-4.8108,-4.7983,-4.8076,-4.7969,-4.7962,-4.7911,-4.7901,-4.7882,-4.7902,-4.7895,-4.7798,-4.7798,-4.7797,-4.7797,0,0,0,0,0,0,0,-4.8423,-4.8412,-4.8314,-4.8264,-4.8246,-4.8192,-4.8171,-4.8178,-4.8028,-4.8067,-4.805,-4.8033,-4.7902,-4.7884,-4.7877,-4.7893,-4.7798,-4.7797,-4.7796,-4.7796,-4.7993,-4.7999,0,0,0,0,0,0,-4.845,-4.8419,-4.832,-4.8309,-4.8314,-4.8194,-4.8171,-4.8158,-4.8028,-4.8002,-4.8038,-4.8023,-4.7889,-4.7878,-4.787,-4.7988,-4.7797,-4.7796,-4.7795,-4.7987,-4.7995,-4.8001,0,0,0,0,0,0,-4.8454,-4.8443,-4.8327,-4.8359,-4.834,-4.8198,-4.8185,-4.8157,-4.8138,-4.8005,-4.7978,-4.8047,-4.7884,-4.7872,-4.7901,-4.7979,-4.7795,-4.7794,-4.798,-4.799,-4.7998,-4.8225,0,0,0,0,0,0,-4.8458,-4.8446,-4.8484,-4.8362,-4.8339,-4.836,-4.819,-4.8158,-4.8136,-4.8115,-4.8006,-4.7983,-4.7878,-4.7904,-4.79,-4.7974,-4.7793,-4.7973,-4.7984,-4.7995,-4.821,-4.8241,-4.8267,0,0,0,0,0,-4.8464,-4.8557,-4.8488,-4.8477,-4.8384,-4.8364,-4.8352,-4.8228,-4.8143,-4.8181,-4.8096,-4.7986,-4.7971,-4.7909,-4.7903,-4.7977,-4.7967,-4.7981,-4.7994,-4.8197,-4.8235,-4.8266,0,0,0,0,0,0,-4.8695,-4.8538,-4.846,-4.8515,-4.8455,-4.8326,-4.837,-4.8272,-4.8235,-4.8217,-4.8067,-4.8045,-4.8093,-4.8038,-4.7972,-4.8075,-4.7953,-4.7966,-4.811,-4.8144,-4.8172,-4.8185,-4.7792,0,0,0,0,0,-4.8752,-4.8747,-4.8611,-4.8673,-4.8647,-4.8515,-4.8501,-4.8411,-4.8343,-4.8317,-4.8233,-4.8174,-4.8155,-4.8146,-4.8122,-4.8201,-4.8174,-4.8249,-4.8277,-4.8301,-4.8315,-4.8353,-4.8385,-4.8045,-4.8045,-4.8045,0,0,-4.887,-4.8784,-4.8791,-4.8718,-4.866,-4.866,-4.8494,-4.8502,-4.8501,-4.8318,-4.834,-4.8278,-4.8201,-4.8256,-4.8276,-4.8211,-4.8402,-4.8318,-4.8339,-4.8338,-4.837,-4.8402,-4.8431,-4.8054,-4.8053,-4.8051,0,0,-4.9086,-4.902,-4.9064,-4.9009,-4.8923,-4.8834,-4.8846,-4.8731,-4.8682,-4.8701,-4.8564,-4.8562,-4.8533,-4.8484,-4.8456,-4.8653,-4.8551,-4.8649,-4.8798,-4.8837,-4.8864,-4.8887,-4.8958,-4.8986,-4.8662,-4.8663,-4.8663,0,-4.9245,-4.9237,-4.9101,-4.9116,-4.9088,-4.892,-4.8965,-4.8919,-4.8831,-4.8817,-4.8745,-4.8705,-4.8642,-4.8683,-4.8731,-4.8713,-4.8722,-4.8661,-4.8871,-4.8893,-4.8912,-4.8978,-4.9005,-4.8676,-4.8674,-4.8673,-4.8672,0,-4.9437,-4.9435,-4.9481,-4.9397,-4.9375,-4.9405,-4.9275,-4.9269,-4.918,-4.91,-4.9123,-4.904,-4.8996,-4.8999,-4.8914,-4.9029,-4.8991,-4.8898,-4.8772,-4.8959,-4.9019,-4.9043,-4.8694,-4.8689,-4.8685,-4.8682,0,0,-4.9795,-4.9634,-4.9653,-4.9613,-4.9505,-4.9502,-4.9525,-4.9479,-4.9478,-4.9423,-4.944,-4.9419,-4.9331,-4.9299,-4.9206,-4.9241,-4.9403,-4.9142,-4.9138,-4.9194,-4.9526,-4.9598,-4.9629,-4.9334,-4.9338,-4.9342,-4.9532,0,-4.9991,-5.0019,-4.9896,-4.9958,-4.9954,-4.9794,-4.9815,-4.9752,-4.9678,-4.9665,-4.9583,-4.9571,-4.9456,-4.9435,-4.9462,-4.9378,-4.9468,-4.9362,-4.9351,-4.9352,-4.9376,-4.966,-4.9736,-4.992,-4.9555,-4.9558,-4.9561,0,-5.0223,-5.0178,-5.0239,-5.0127,-5.0121,-5.0141,-5.0089,-5.0079,-5.0005,-4.9949,-4.9913,-4.9806,-4.9823,-4.9702,-4.9724,-4.9655,-4.9643,-4.9602,-4.9606,-4.9601,-4.9469,-4.9664,-4.9975,-5.0004,-4.9597,-4.9594,-4.9591,0,-5.0479,-5.0434,-5.0463,-5.0434,-5.0305,-5.0323,-5.027,-5.019,-5.0171,-5.0127,-5.0113,-5.0073,-5.0051,-5.0023,-4.9909,-4.9831,-4.9946,-4.9815,-4.9901,-4.9904,-4.9933,-4.9933,-5.0248,-4.9925,-4.9924,-4.9924,-4.9923,0,-5.0711,-5.0755,-5.0576,-5.0595,-5.064,-5.0499,-5.0547,-5.0479,-5.041,-5.0414,-5.0274,-5.0282,-5.0129,-5.0121,-5.0032,-5.0065,-5.0056,-5.0012,-4.9988,-5.0025,-5.0031,-5.0016,-5.0001,-4.9931,-4.9929,-4.9928,-4.9927,0,-5.1005,-5.0887,-5.0909,-5.0784,-5.0754,-5.0792,-5.0686,-5.0699,-5.0615,-5.0623,-5.0616,-5.0486,-5.0469,-5.0351,-5.0308,-5.0248,-5.0314,-5.0265,-5.0339,-5.0323,-5.0416,-5.0409,-5.0733,-5.0769,-5.0423,-5.0427,-5.0429,0,-5.1161,-5.119,-5.1068,-5.1059,-5.1012,-5.1001,-5.0979,-5.0842,-5.0826,-5.0744,-5.0769,-5.0739,-5.0708,-5.0688,-5.0591,-5.0558,-5.0507,-5.0623,-5.0501,-5.0538,-5.051,-5.051,-5.0513,-5.0649,-5.0654,-5.0657,-5.066,0,-5.1451,-5.1391,-5.1364,-5.1318,-5.1296,-5.1253,-5.1202,-5.1204,-5.1052,-5.1042,-5.102,-5.0997,-5.0951,-5.0924,-5.0874,-5.0821,-5.0718,-5.0699,-5.0717,-5.0756,-5.0798,-5.0777,-5.041,-5.0693,-5.0689,-5.0687,-5.0685,-5.0684,-5.1681,-5.1699,-5.1616,-5.1591,-5.1538,-5.1493,-5.1499,-5.1415,-5.1394,-5.1345,-5.1266,-5.1256,-5.1182,-5.1103,-5.106,-5.1052,-5.0991,-5.1017,-5.1024,-5.1033,-5.1053,-5.0798,-5.1042,-5.1041,-5.104,-5.1039,-5.1038,0,-5.1964,-5.1902,-5.188,-5.1812,-5.1794,-5.1693,-5.1632,-5.1623,-5.1616,-5.1554,-5.1526,-5.1503,-5.1476,-5.1377,-5.134,-5.1353,-5.1305,-5.1349,-5.1347,-5.1337,-5.1109,-5.1097,-5.1389,-5.1389,-5.1388,-5.1388,-5.1388,-5.1388,-5.2109,-5.2136,-5.2066,-5.2065,-5.2002,-5.199,-5.1964,-5.1923,-5.1872,-5.1852,-5.1828,-5.1762,-5.1686,-5.1643,-5.1615,-5.1586,-5.158,-5.164,-5.1597,-5.1386,-5.1353,-5.1321,-5.1309,-5.164,-5.164,-5.1825,-5.1826,-5.1828]},{"header":{"parameterUnit":"m.s-1","parameterCategory":1,"la1":30.2991,"la2":30.254,"lo1":-89.0895,"lo2":-89.0444,"dx":0.0017,"dy":0.0017,"nx":28,"ny":28,"refTime":"2023-01-20T09:00:00:Z","depth":0,"parameterNumber":3,"parameterNumberName":"V-component_of_WINDS"},"data":[0,0,0,0,0,0,0,0,0,0,0,0,0,0,0,0,0,0,0,0,0,0,0,0,0,0,0,0,0,0,0,0,0,0,0,0,0,0,0,0,0,0,0,0,0,0,0,0,0,0,0,0,0,0,0,0,0,0,0.8884,0.8884,0,0.8879,0.8879,0.8879,0.8928,0.893,0.8931,0.8932,0.8919,0.8917,0.8915,0,0,0,0,0,0,0,0,0,0,0,0,0,0.8933,0.8932,0.8884,0.8884,0.8884,0.8879,0.8879,0.8879,0.8928,0.893,0.8931,0.8933,0.8919,0.8917,0.8915,0,0,0,0,0,0,0,0,0,0,0,0,0,0.8918,0.8932,0.8884,0.8908,0.8911,0.8879,0.8879,0.8879,0.8928,0.893,0.8932,0.8934,0.892,0.8917,0.8915,0.8858,0,0,0.8907,0.8906,0,0,0,0,0,0,0,0,0.8919,0.8916,0.8905,0.8907,0.8909,0.8907,0.8891,0.8871,0.8927,0.8921,0.8932,0.8935,0.8912,0.8911,0.8905,0.8857,0.8856,0.8907,0.8906,0.8905,0.8904,0,0,0,0,0,0,0,0.892,0.8917,0.8882,0.8905,0.8907,0.8918,0.8918,0.8888,0.8905,0.8922,0.8925,0.8924,0.8914,0.8907,0.8905,0.8856,0.8907,0.8905,0.8903,0.8902,0.8763,0.8761,0,0,0,0,0,0,0.8919,0.8917,0.8882,0.8882,0.892,0.8916,0.8916,0.8905,0.8905,0.8907,0.8922,0.8927,0.891,0.8908,0.8904,0.8837,0.8905,0.8902,0.8901,0.8766,0.8763,0.8761,0,0,0,0,0,0,0.8919,0.8915,0.8882,0.8901,0.8897,0.8913,0.89,0.8904,0.8897,0.8906,0.8909,0.8912,0.8912,0.8908,0.887,0.8837,0.8901,0.8899,0.8768,0.8765,0.8762,0.8702,0,0,0,0,0,0,0.8921,0.8915,0.8894,0.89,0.8896,0.8848,0.8898,0.8902,0.8894,0.8899,0.8897,0.8899,0.8913,0.8873,0.8867,0.8835,0.8897,0.8771,0.8767,0.8763,0.8707,0.8697,0.8689,0,0,0,0,0,0.8922,0.8875,0.8892,0.8888,0.887,0.8847,0.8844,0.8864,0.8891,0.8869,0.8876,0.8899,0.8844,0.8869,0.8863,0.8829,0.8773,0.8768,0.8763,0.8711,0.8699,0.8689,0,0,0,0,0,0,0.886,0.8876,0.8895,0.8849,0.8847,0.8855,0.8827,0.885,0.8837,0.8842,0.8866,0.8865,0.8823,0.8823,0.8851,0.8775,0.8813,0.8806,0.8775,0.8764,0.8755,0.8753,0.8895,0,0,0,0,0,0.8842,0.8823,0.8838,0.8795,0.8794,0.8811,0.8801,0.8818,0.8815,0.8813,0.8816,0.8811,0.8793,0.8779,0.8763,0.871,0.8709,0.8684,0.8675,0.8667,0.8659,0.8632,0.862,0.8744,0.8744,0.8745,0,0,0.8801,0.8808,0.8794,0.8783,0.8783,0.8761,0.8809,0.8784,0.8768,0.8808,0.8772,0.8776,0.8772,0.8726,0.8706,0.8725,0.8627,0.8661,0.8655,0.8651,0.8626,0.8614,0.8603,0.8741,0.8742,0.8742,0,0,0.8717,0.8722,0.8687,0.8688,0.8689,0.8702,0.8694,0.8701,0.8705,0.8671,0.8702,0.8683,0.8651,0.8647,0.864,0.8562,0.8583,0.8557,0.8506,0.8479,0.8469,0.8461,0.843,0.842,0.855,0.855,0.855,0,0.8665,0.8636,0.8665,0.8639,0.8633,0.8675,0.8639,0.8638,0.8632,0.8626,0.865,0.8612,0.8612,0.8566,0.8548,0.8543,0.8533,0.8553,0.8469,0.8461,0.8453,0.8424,0.8413,0.8547,0.8547,0.8547,0.8548,0,0.8572,0.8552,0.8524,0.8522,0.8514,0.8482,0.8506,0.8494,0.8514,0.8524,0.849,0.8493,0.8478,0.847,0.8487,0.8428,0.8439,0.8466,0.8503,0.8437,0.841,0.84,0.8542,0.8543,0.8544,0.8545,0,0,0.844,0.846,0.8448,0.8449,0.8457,0.844,0.8413,0.8403,0.8391,0.8388,0.8364,0.834,0.8366,0.8358,0.8376,0.8353,0.829,0.8383,0.8383,0.8362,0.8223,0.8199,0.8186,0.8307,0.8305,0.8303,0.8222,0,0.8355,0.8309,0.8338,0.8287,0.8268,0.8312,0.8288,0.8289,0.8301,0.8286,0.8298,0.8279,0.8316,0.8312,0.8292,0.8301,0.8261,0.8309,0.8281,0.8279,0.8275,0.8172,0.8146,0.8069,0.8212,0.821,0.8209,0,0.8247,0.8244,0.8192,0.8207,0.82,0.8178,0.8172,0.8159,0.8163,0.8173,0.8169,0.8194,0.8167,0.821,0.8173,0.8204,0.8196,0.82,0.8198,0.819,0.8236,0.8158,0.8045,0.8031,0.8194,0.8195,0.8196,0,0.8152,0.8135,0.8102,0.8102,0.8118,0.8102,0.8108,0.8115,0.8108,0.8103,0.8099,0.8091,0.8084,0.8077,0.8099,0.8129,0.8059,0.8103,0.8064,0.8063,0.804,0.804,0.7919,0.8044,0.8045,0.8045,0.8045,0,0.8051,0.8016,0.806,0.8038,0.8002,0.8037,0.7999,0.801,0.8017,0.7998,0.8037,0.8018,0.8051,0.8036,0.8054,0.8019,0.8017,0.8023,0.8027,0.8016,0.8015,0.8006,0.801,0.8042,0.8043,0.8043,0.8044,0,0.7933,0.7962,0.7929,0.795,0.7955,0.7927,0.7945,0.7926,0.7944,0.792,0.7916,0.7942,0.7926,0.7951,0.7937,0.7949,0.7901,0.7916,0.7899,0.7902,0.7859,0.7861,0.7723,0.7706,0.7847,0.7846,0.7845,0,0.7864,0.7839,0.786,0.7852,0.7857,0.7843,0.7838,0.7873,0.7866,0.7872,0.7852,0.7841,0.7833,0.7807,0.7823,0.7814,0.7825,0.7779,0.7823,0.7814,0.782,0.7819,0.7815,0.7766,0.7764,0.7763,0.7762,0,0.7736,0.7753,0.7745,0.7743,0.7736,0.7736,0.7737,0.7728,0.7766,0.7756,0.7743,0.7738,0.7727,0.7714,0.7711,0.7716,0.7743,0.775,0.7739,0.7724,0.7714,0.7715,0.7868,0.775,0.7751,0.7752,0.7753,0.7753,0.7637,0.7618,0.7631,0.7621,0.7628,0.763,0.7614,0.7633,0.7623,0.7618,0.7641,0.7622,0.7631,0.7629,0.7632,0.7618,0.7638,0.7624,0.7619,0.7613,0.7605,0.7723,0.7618,0.7618,0.7619,0.7619,0.7619,0,0.7507,0.752,0.7512,0.7515,0.7508,0.7543,0.7549,0.7539,0.7523,0.7531,0.7525,0.751,0.7501,0.752,0.7512,0.7497,0.751,0.7494,0.7491,0.7492,0.7589,0.7597,0.7483,0.7483,0.7483,0.7483,0.7484,0.7484,0.7439,0.7407,0.7427,0.74,0.7413,0.7397,0.7397,0.74,0.7406,0.7389,0.7383,0.7397,0.7409,0.7405,0.7397,0.7403,0.7396,0.7374,0.7384,0.7472,0.7485,0.7498,0.7505,0.7374,0.7374,0.7288,0.7287,0.7287]}]]